• In Hungary
  • List of Countries
  • For 7 days
  • Water Temperature
  • Satellite Maps
  • Weather Map
  • News
  • Weather Widgets
  • user-avatar
    Login

    Hourly Weather Dumfries

    Today, 18 November, Saturday

    Time Temperature Precipitation Wind Pressure Humidity
    00:00 +5°C° 0 mm 7 mps 760 mmHg 77%
    01:00 +5°C° 0.1 mm 7 mps 760 mmHg 77%
    02:00 +4°C° 0.1 mm 6 mps 760 mmHg 78%
    03:00 +4°C° 0.1 mm 6 mps 760 mmHg 78%
    04:00 +4°C° 0 mm 6 mps 760 mmHg 78%
    05:00 +3°C° 0 mm 5 mps 760 mmHg 78%
    06:00 +2°C° 0 mm 5 mps 760 mmHg 78%
    07:00 +3°C° 0 mm 4 mps 760 mmHg 78%
    08:00 +3°C° 0 mm 4 mps 761 mmHg 78%
    09:00 +3°C° 0 mm 4 mps 761 mmHg 78%
    10:00 +4°C° 0 mm 4 mps 761 mmHg 73%
    11:00 +3°C° 0 mm 5 mps 762 mmHg 68%
    12:00 +5°C° 0 mm 5 mps 762 mmHg 63%
    13:00 +5°C° 0 mm 5 mps 762 mmHg 65%
    14:00 +5°C° 0 mm 5 mps 762 mmHg 66%
    15:00 +4°C° 0 mm 4 mps 762 mmHg 68%
    16:00 +3°C° 0 mm 4 mps 762 mmHg 71%
    17:00 +3°C° 0 mm 4 mps 762 mmHg 74%
    18:00 +1°C° 0 mm 4 mps 762 mmHg 77%
    19:00 +1°C° 0 mm 4 mps 762 mmHg 78%
    20:00 +2°C° 0 mm 3 mps 763 mmHg 79%
    21:00 +1°C° 0 mm 3 mps 763 mmHg 80%
    22:00 +1°C° 0 mm 3 mps 763 mmHg 82%
    23:00 +1°C° 0 mm 3 mps 763 mmHg 83%

    Tomorrow, 19 November, Sunday

    Time Temperature Precipitation Wind Pressure Humidity
    00:00 +1°C° 0 mm 3 mps 763 mmHg 85%
    01:00 +2°C° 0 mm 2 mps 763 mmHg 87%
    02:00 +2°C° 0 mm 2 mps 764 mmHg 88%
    03:00 +2°C° 0 mm 2 mps 764 mmHg 90%
    04:00 +2°C° 0 mm 2 mps 764 mmHg 90%
    05:00 +2°C° 0 mm 2 mps 764 mmHg 91%
    06:00 +3°C° 0 mm 1 mps 764 mmHg 91%
    07:00 +3°C° 0 mm 1 mps 764 mmHg 90%
    08:00 +4°C° 0 mm 1 mps 764 mmHg 89%
    09:00 +4°C° 0 mm 1 mps 764 mmHg 88%
    10:00 +5°C° 0 mm 1 mps 764 mmHg 85%
    11:00 +6°C° 0 mm 1 mps 763 mmHg 82%
    12:00 +6°C° 0 mm 1 mps 763 mmHg 79%
    13:00 +6°C° 0.1 mm 1 mps 763 mmHg 81%
    14:00 +6°C° 0.1 mm 1 mps 762 mmHg 82%
    15:00 +6°C° 0.1 mm 1 mps 762 mmHg 84%
    16:00 +5°C° 0.3 mm 2 mps 761 mmHg 86%
    17:00 +5°C° 0.3 mm 2 mps 760 mmHg 89%
    18:00 +4°C° 0.3 mm 2 mps 760 mmHg 91%
    19:00 +5°C° 0.8 mm 2 mps 759 mmHg 93%
    20:00 +5°C° 0.8 mm 2 mps 758 mmHg 94%
    21:00 +4°C° 0.8 mm 3 mps 757 mmHg 96%
    22:00 +5°C° 1.4 mm 3 mps 756 mmHg 96%
    23:00 +5°C° 1.4 mm 3 mps 754 mmHg 97%

    Day after tomorrow, 20 November, Monday

    Time Temperature Precipitation Wind Pressure Humidity
    00:00 +6°C° 1.4 mm 2 mps 753 mmHg 97%
    01:00 +7°C° 1.5 mm 3 mps 752 mmHg 97%
    02:00 +8°C° 1.5 mm 3 mps 751 mmHg 96%
    03:00 +8°C° 1.5 mm 4 mps 750 mmHg 96%
    04:00 +8°C° 0.6 mm 4 mps 750 mmHg 96%
    05:00 +8°C° 0.6 mm 4 mps 749 mmHg 95%
    06:00 +10°C° 0.6 mm 4 mps 748 mmHg 95%
    07:00 +10°C° 0.8 mm 4 mps 748 mmHg 95%
    08:00 +10°C° 0.8 mm 4 mps 748 mmHg 94%
    09:00 +10°C° 0.8 mm 4 mps 748 mmHg 94%
    10:00 +10°C° 0.3 mm 4 mps 748 mmHg 94%
    11:00 +10°C° 0.3 mm 4 mps 748 mmHg 93%
    12:00 +11°C° 0.3 mm 3 mps 749 mmHg 93%
    13:00 +10°C° 0.1 mm 3 mps 749 mmHg 93%
    14:00 +10°C° 0.1 mm 3 mps 750 mmHg 94%
    15:00 +10°C° 0.1 mm 2 mps 750 mmHg 95%
    16:00 +9°C° 0.1 mm 2 mps 751 mmHg 95%
    17:00 +9°C° 0.1 mm 2 mps 751 mmHg 96%
    18:00 +8°C° 0.1 mm 2 mps 752 mmHg 96%
    19:00 +8°C° 0.3 mm 2 mps 752 mmHg 96%
    20:00 +8°C° 0.3 mm 2 mps 753 mmHg 96%
    21:00 +8°C° 0.3 mm 2 mps 753 mmHg 96%
    22:00 +8°C° 0.2 mm 2 mps 753 mmHg 96%
    23:00 +8°C° 0.2 mm 2 mps 753 mmHg 96%

    21 November, Tuesday

    Time Temperature Precipitation Wind Pressure Humidity
    00:00 +8°C° 0.2 mm 2 mps 753 mmHg 96%
    01:00 +8°C° 0.6 mm 2 mps 752 mmHg 96%
    02:00 +8°C° 0.6 mm 2 mps 752 mmHg 97%
    03:00 +8°C° 0.6 mm 2 mps 751 mmHg 97%
    04:00 +8°C° 1.9 mm 2 mps 751 mmHg 97%
    05:00 +9°C° 1.9 mm 1 mps 750 mmHg 98%
    06:00 +9°C° 1.9 mm 1 mps 749 mmHg 98%
    07:00 +9°C° 1.3 mm 1 mps 749 mmHg 98%
    08:00 +9°C° 1.3 mm 1 mps 749 mmHg 97%
    09:00 +9°C° 1.3 mm 1 mps 749 mmHg 97%
    10:00 +8°C° 0.1 mm 2 mps 749 mmHg 95%
    11:00 +8°C° 0.1 mm 2 mps 750 mmHg 92%
    12:00 +8°C° 0.1 mm 2 mps 750 mmHg 90%
    13:00 +8°C° 0 mm 3 mps 750 mmHg 90%
    14:00 +8°C° 0 mm 3 mps 750 mmHg 90%
    15:00 +7°C° 0 mm 3 mps 751 mmHg 90%
    16:00 +7°C° 0.1 mm 3 mps 751 mmHg 90%
    17:00 +5°C° 0.1 mm 3 mps 751 mmHg 90%
    18:00 +5°C° 0.1 mm 4 mps 751 mmHg 91%
    19:00 +5°C° 0.9 mm 4 mps 750 mmHg 91%
    20:00 +5°C° 0.9 mm 4 mps 750 mmHg 92%
    21:00 +5°C° 0.9 mm 5 mps 750 mmHg 92%
    22:00 +5°C° 3.2 mm 5 mps 749 mmHg 93%
    23:00 +5°C° 3.2 mm 5 mps 748 mmHg 94%

    22 November, Wednesday

    Time Temperature Precipitation Wind Pressure Humidity
    00:00 +4°C° 3.2 mm 6 mps 747 mmHg 95%
    01:00 +4°C° 3.8 mm 6 mps 746 mmHg 95%
    02:00 +5°C° 3.8 mm 6 mps 745 mmHg 96%
    03:00 +5°C° 3.8 mm 6 mps 744 mmHg 96%
    04:00 +6°C° 3.5 mm 5 mps 744 mmHg 96%
    05:00 +7°C° 3.5 mm 5 mps 743 mmHg 96%
    06:00 +7°C° 3.5 mm 4 mps 742 mmHg 96%
    07:00 +7°C° 2.4 mm 4 mps 742 mmHg 96%
    08:00 +7°C° 2.4 mm 4 mps 742 mmHg 96%
    09:00 +7°C° 2.4 mm 4 mps 742 mmHg 96%
    10:00 +8°C° 1.6 mm 3 mps 742 mmHg 95%
    11:00 +8°C° 1.6 mm 3 mps 742 mmHg 95%
    12:00 +8°C° 1.6 mm 3 mps 741 mmHg 95%
    13:00 +9°C° 0.9 mm 3 mps 741 mmHg 95%
    14:00 +8°C° 0.9 mm 4 mps 740 mmHg 94%
    15:00 +10°C° 0.9 mm 4 mps 739 mmHg 94%
    16:00 +9°C° 0.5 mm 5 mps 738 mmHg 93%
    17:00 +10°C° 0.5 mm 5 mps 737 mmHg 92%
    18:00 +10°C° 0.5 mm 6 mps 736 mmHg 91%
    19:00 +10°C° 0.6 mm 7 mps 735 mmHg 89%
    20:00 +11°C° 0.6 mm 7 mps 734 mmHg 88%
    21:00 +11°C° 0.6 mm 8 mps 734 mmHg 86%
    22:00 +11°C° 0.7 mm 8 mps 733 mmHg 87%
    23:00 +11°C° 0.7 mm 8 mps 732 mmHg 88%

    23 November, Thursday

    Time Temperature Precipitation Wind Pressure Humidity
    00:00 +11°C° 0.7 mm 8 mps 731 mmHg 89%
    01:00 +11°C° 1.2 mm 7 mps 730 mmHg 90%
    02:00 +11°C° 1.2 mm 7 mps 730 mmHg 90%
    03:00 +11°C° 1.2 mm 7 mps 729 mmHg 91%
    04:00 +11°C° 1 mm 6 mps 728 mmHg 91%
    05:00 +10°C° 1 mm 6 mps 728 mmHg 92%
    06:00 +10°C° 1 mm 5 mps 728 mmHg 92%
    07:00 +10°C° 0.3 mm 6 mps 728 mmHg 92%
    08:00 +10°C° 0.3 mm 6 mps 729 mmHg 91%
    09:00 +10°C° 0.3 mm 6 mps 729 mmHg 91%
    10:00 +10°C° 0.1 mm 7 mps 730 mmHg 89%
    11:00 +9°C° 0.1 mm 7 mps 731 mmHg 88%
    12:00 +9°C° 0.1 mm 7 mps 732 mmHg 87%
    13:00 +9°C° 0 mm 7 mps 734 mmHg 87%
    14:00 +9°C° 0 mm 6 mps 735 mmHg 87%
    15:00 +9°C° 0 mm 6 mps 736 mmHg 87%
    16:00 +8°C° 0 mm 5 mps 738 mmHg 88%
    17:00 +8°C° 0 mm 4 mps 739 mmHg 88%
    18:00 +8°C° 0 mm 3 mps 740 mmHg 89%
    19:00 +8°C° 0 mm 2 mps 741 mmHg 89%
    20:00 +7°C° 0 mm 2 mps 741 mmHg 89%
    21:00 +8°C° 0 mm 1 mps 742 mmHg 88%
    22:00 +7°C° 0.2 mm 2 mps 742 mmHg 89%
    23:00 +7°C° 0.2 mm 2 mps 742 mmHg 89%
    Show more